{"data":{"norad_id":69795,"epoch":"2026-09-19T20:27:55.277568Z","epoch_age_seconds":82633,"freshness":"FRESH","line1":"1 69795U 98067YK  26262.85272312  .00062251  00000+0  81097-3 0  9997","line2":"2 69795  51.6287 188.9637 0008119 160.7877 199.3423 15.58096649 12360","mean_motion":15.58096649,"eccentricity":0.0008119,"inclination_deg":51.6287,"raan_deg":188.9637,"arg_perigee_deg":160.7877,"mean_anomaly_deg":199.3423,"bstar":0.00081097,"rev_number":1236,"period_min":92.420454207652,"perigee_km":387.66834385738,"apogee_km":398.66358561151,"semimajor_km":6771.3029647344,"source":"CELESTRAK","updated_at":"2026-09-20T09:00:25.117286Z"}}